[[{"header":{"parameterUnit":"m.s-1","parameterCategory":1,"la1":30.2991,"la2":30.254,"lo1":-89.0895,"lo2":-89.0444,"dy":0.0017,"dx":0.0017,"nx":28,"ny":28,"refTime":"2023-09-04T09:00:00:Z","depth":0,"parameterNumber":2,"parameterNumberName":"U-component_of_WINDS"},"data":[0,0,0,0,0,0,0,0,0,0,0,0,0,0,0,0,0,0,0,0,0,0,0,0,0,0,0,0,0,0,0,0,0,0,0,0,0,0,0,0,0,0,0,0,0,0,0,0,0,0,0,0,0,0,0,0,0,0,-3.6566,-3.6567,0,-3.6719,-3.6721,-3.6723,-3.6754,-3.6753,-3.6751,-3.675,-3.6903,-3.6908,-3.6913,0,0,0,0,0,0,0,0,0,0,0,0,0,-3.6295,-3.63,-3.6565,-3.6567,-3.6569,-3.6719,-3.6721,-3.6723,-3.6754,-3.6753,-3.6751,-3.675,-3.6901,-3.6907,-3.6914,0,0,0,0,0,0,0,0,0,0,0,0,0,-3.6427,-3.6301,-3.6565,-3.6603,-3.6608,-3.6718,-3.6721,-3.6724,-3.6754,-3.6753,-3.6751,-3.6749,-3.6899,-3.6907,-3.6914,-3.6997,0,0,-3.6938,-3.6941,0,0,0,0,0,0,0,0,-3.6419,-3.6437,-3.6595,-3.66,-3.6606,-3.6716,-3.6682,-3.6815,-3.6755,-3.6698,-3.675,-3.6748,-3.6842,-3.6854,-3.6887,-3.7004,-3.7011,-3.6939,-3.6943,-3.6947,-3.6949,0,0,0,0,0,0,0,-3.641,-3.643,-3.6626,-3.6598,-3.6604,-3.6611,-3.6628,-3.6707,-3.6778,-3.6703,-3.6706,-3.6724,-3.6844,-3.6879,-3.689,-3.7013,-3.6938,-3.6945,-3.695,-3.6953,-3.7205,-3.7207,0,0,0,0,0,0,-3.6395,-3.6422,-3.6621,-3.6631,-3.6507,-3.6617,-3.6636,-3.6682,-3.6777,-3.679,-3.6725,-3.6725,-3.6867,-3.6881,-3.6896,-3.6998,-3.6947,-3.6954,-3.6958,-3.7203,-3.7206,-3.7208,0,0,0,0,0,0,-3.6389,-3.6412,-3.6615,-3.6527,-3.6554,-3.6624,-3.6675,-3.6686,-3.6721,-3.6794,-3.6806,-3.6748,-3.6866,-3.6885,-3.6972,-3.7003,-3.6957,-3.6964,-3.7201,-3.7204,-3.7207,-3.7202,0,0,0,0,0,0,-3.6381,-3.641,-3.6443,-3.6528,-3.6558,-3.6689,-3.6677,-3.669,-3.6735,-3.6736,-3.6818,-3.683,-3.6866,-3.696,-3.6979,-3.7013,-3.697,-3.7198,-3.7202,-3.7206,-3.72,-3.7205,-3.7209,0,0,0,0,0,-3.6371,-3.6435,-3.6444,-3.6468,-3.6601,-3.6691,-3.6708,-3.6749,-3.6737,-3.677,-3.6817,-3.6828,-3.6998,-3.6969,-3.6991,-3.7027,-3.7196,-3.7201,-3.7205,-3.7198,-3.7204,-3.7209,0,0,0,0,0,0,-3.6349,-3.6446,-3.6458,-3.6551,-3.6613,-3.6696,-3.6739,-3.6755,-3.682,-3.6818,-3.6865,-3.6883,-3.6967,-3.7006,-3.6972,-3.7112,-3.7096,-3.7105,-3.7083,-3.7089,-3.7094,-3.7081,-3.6977,0,0,0,0,0,-3.6356,-3.6422,-3.6503,-3.6577,-3.6608,-3.6668,-3.6709,-3.6735,-3.68,-3.6826,-3.6879,-3.6941,-3.7008,-3.7051,-3.7117,-3.7207,-3.7224,-3.7243,-3.7248,-3.7251,-3.7257,-3.7307,-3.7315,-3.7223,-3.7223,-3.7223,0,0,-3.6368,-3.643,-3.6468,-3.6574,-3.6625,-3.6691,-3.6689,-3.676,-3.6809,-3.6836,-3.6921,-3.6963,-3.7035,-3.7123,-3.7165,-3.7158,-3.7288,-3.7257,-3.7259,-3.7264,-3.7312,-3.7321,-3.7329,-3.7226,-3.7226,-3.7225,0,0,-3.6425,-3.6479,-3.6547,-3.6598,-3.6676,-3.6716,-3.6732,-3.6814,-3.6843,-3.693,-3.6952,-3.7011,-3.7126,-3.7176,-3.7217,-3.7294,-3.7306,-3.7315,-3.7338,-3.7385,-3.7392,-3.7399,-3.7425,-3.7434,-3.7322,-3.7322,-3.7322,0,-3.6431,-3.6533,-3.6579,-3.6648,-3.6693,-3.6724,-3.6792,-3.6839,-3.6934,-3.6964,-3.6956,-3.7102,-3.7153,-3.7252,-3.7272,-3.7304,-3.7323,-3.7304,-3.7388,-3.7395,-3.7402,-3.7427,-3.7437,-3.7322,-3.7322,-3.7322,-3.7322,0,-3.6535,-3.6605,-3.665,-3.6742,-3.6793,-3.6861,-3.6916,-3.6962,-3.6985,-3.7026,-3.7113,-3.7176,-3.7254,-3.7281,-3.7303,-3.7384,-3.7378,-3.7379,-3.7363,-3.741,-3.7435,-3.7445,-3.7323,-3.7322,-3.7322,-3.7322,0,0,-3.6579,-3.6698,-3.6713,-3.6755,-3.6844,-3.6899,-3.6969,-3.7047,-3.7085,-3.715,-3.7208,-3.7306,-3.7308,-3.7354,-3.7382,-3.7425,-3.748,-3.7421,-3.7423,-3.7427,-3.7571,-3.7568,-3.7578,-3.749,-3.7492,-3.7494,-3.7565,0,-3.6645,-3.6771,-3.6815,-3.6918,-3.6983,-3.7014,-3.7075,-3.7135,-3.7175,-3.7235,-3.728,-3.7347,-3.7346,-3.7374,-3.7417,-3.7464,-3.7509,-3.746,-3.7542,-3.7545,-3.7521,-3.7592,-3.7588,-3.7652,-3.7575,-3.7576,-3.7578,0,-3.6738,-3.6805,-3.6916,-3.6997,-3.7026,-3.7079,-3.7155,-3.7213,-3.7282,-3.7308,-3.7361,-3.7387,-3.746,-3.7442,-3.7542,-3.7508,-3.7545,-3.7573,-3.7577,-3.7583,-3.7562,-3.7598,-3.7673,-3.7682,-3.7593,-3.7592,-3.7591,0,-3.6756,-3.6875,-3.6956,-3.6992,-3.7089,-3.7126,-3.7168,-3.7236,-3.728,-3.7347,-3.7376,-3.7449,-3.7489,-3.7545,-3.7589,-3.7573,-3.7685,-3.7672,-3.7707,-3.7706,-3.7726,-3.7724,-3.7806,-3.7755,-3.7755,-3.7754,-3.7754,0,-3.6823,-3.6889,-3.6966,-3.7015,-3.709,-3.714,-3.7212,-3.7255,-3.7316,-3.7373,-3.7405,-3.7459,-3.7516,-3.7577,-3.7613,-3.7689,-3.7707,-3.7729,-3.7737,-3.7725,-3.7722,-3.7747,-3.7743,-3.7757,-3.7756,-3.7756,-3.7755,0,-3.6855,-3.691,-3.7,-3.7086,-3.7109,-3.7159,-3.7232,-3.7281,-3.7323,-3.7396,-3.7416,-3.7482,-3.7555,-3.7607,-3.77,-3.7724,-3.7806,-3.7815,-3.7783,-3.7786,-3.7818,-3.7813,-3.7917,-3.7933,-3.7873,-3.7873,-3.7874,0,-3.6893,-3.6945,-3.7036,-3.7078,-3.712,-3.7187,-3.7233,-3.7285,-3.7331,-3.7415,-3.7453,-3.7529,-3.7592,-3.7707,-3.7763,-3.7834,-3.7844,-3.7876,-3.7854,-3.784,-3.7842,-3.7837,-3.7842,-3.7877,-3.7878,-3.7878,-3.7878,0,-3.6954,-3.6979,-3.7045,-3.712,-3.7175,-3.7237,-3.7299,-3.7331,-3.7394,-3.7444,-3.752,-3.7569,-3.7666,-3.774,-3.7817,-3.7859,-3.7879,-3.7885,-3.7897,-3.7883,-3.7861,-3.7871,-3.7788,-3.7882,-3.7881,-3.7881,-3.7881,-3.7881,-3.6989,-3.7035,-3.7107,-3.7179,-3.7232,-3.729,-3.734,-3.7389,-3.7454,-3.7537,-3.7564,-3.7642,-3.7711,-3.7817,-3.7861,-3.7922,-3.792,-3.7937,-3.7941,-3.7943,-3.7942,-3.7854,-3.7936,-3.7936,-3.7936,-3.7936,-3.7936,0,-3.7049,-3.7097,-3.7164,-3.725,-3.7307,-3.7323,-3.7393,-3.7439,-3.7507,-3.757,-3.7632,-3.7719,-3.7792,-3.7854,-3.7929,-3.7966,-3.7977,-3.7983,-3.798,-3.7989,-3.7941,-3.7922,-3.7974,-3.7973,-3.7973,-3.7973,-3.7973,-3.7973,-3.7087,-3.7167,-3.72,-3.7306,-3.7354,-3.7431,-3.747,-3.7523,-3.7573,-3.7669,-3.773,-3.7771,-3.7833,-3.7913,-3.798,-3.7997,-3.8022,-3.8026,-3.8044,-3.7997,-3.7992,-3.7988,-3.7971,-3.8032,-3.8032,-3.8087,-3.8088,-3.8088]},{"header":{"parameterUnit":"m.s-1","parameterCategory":1,"la1":30.2991,"la2":30.254,"lo1":-89.0895,"lo2":-89.0444,"dy":0.0017,"dx":0.0017,"nx":28,"ny":28,"refTime":"2023-09-04T09:00:00:Z","depth":0,"parameterNumber":3,"parameterNumberName":"V-component_of_WINDS"},"data":[0,0,0,0,0,0,0,0,0,0,0,0,0,0,0,0,0,0,0,0,0,0,0,0,0,0,0,0,0,0,0,0,0,0,0,0,0,0,0,0,0,0,0,0,0,0,0,0,0,0,0,0,0,0,0,0,0,0,3.394,3.3942,0,3.413,3.4132,3.4134,3.4143,3.414,3.4138,3.4136,3.4327,3.4333,3.4341,0,0,0,0,0,0,0,0,0,0,0,0,0,3.3582,3.3588,3.394,3.3942,3.3945,3.413,3.4132,3.4135,3.4143,3.414,3.4138,3.4135,3.4324,3.4333,3.4341,0,0,0,0,0,0,0,0,0,0,0,0,0,3.3751,3.359,3.394,3.3971,3.3976,3.4129,3.4132,3.4136,3.4144,3.414,3.4137,3.4134,3.4321,3.4332,3.4342,3.4476,0,0,3.4375,3.438,0,0,0,0,0,0,0,0,3.3741,3.3764,3.3964,3.3969,3.3975,3.4109,3.4076,3.425,3.4144,3.408,3.4136,3.4132,3.4257,3.4273,3.4315,3.4485,3.4493,3.4376,3.4383,3.4387,3.439,0,0,0,0,0,0,0,3.373,3.3756,3.4015,3.3967,3.3974,3.3975,3.3995,3.4109,3.4185,3.4085,3.4086,3.4109,3.4259,3.4305,3.432,3.4496,3.4376,3.4385,3.4392,3.4396,3.4784,3.4788,0,0,0,0,0,0,3.3712,3.3746,3.4009,3.4021,3.3848,3.3984,3.4007,3.4069,3.4183,3.4198,3.4111,3.4108,3.4288,3.4307,3.4327,3.449,3.4387,3.4397,3.4403,3.478,3.4785,3.4789,0,0,0,0,0,0,3.3704,3.3736,3.4001,3.3884,3.3918,3.3994,3.4064,3.4075,3.4121,3.4203,3.4217,3.4145,3.4286,3.4312,3.4439,3.4497,3.4402,3.4412,3.4776,3.4782,3.4787,3.4818,0,0,0,0,0,0,3.3694,3.3733,3.3785,3.3885,3.3924,3.4111,3.4068,3.4081,3.414,3.4138,3.4238,3.4251,3.4286,3.4423,3.445,3.451,3.442,3.4771,3.4778,3.4785,3.4812,3.4824,3.4834,0,0,0,0,0,3.3681,3.3785,3.3787,3.3819,3.3991,3.4115,3.4137,3.4175,3.4145,3.4197,3.425,3.4248,3.4487,3.4436,3.4466,3.453,3.4767,3.4776,3.4785,3.4807,3.4822,3.4834,0,0,0,0,0,0,3.3688,3.3799,3.3802,3.3942,3.4019,3.4116,3.4183,3.419,3.4276,3.427,3.4313,3.4336,3.4462,3.4509,3.4451,3.4666,3.4623,3.4638,3.463,3.4645,3.4656,3.4641,3.4429,0,0,0,0,0,3.3706,3.3798,3.389,3.4004,3.4043,3.4106,3.4162,3.4185,3.4266,3.4298,3.436,3.4438,3.4531,3.4591,3.468,3.482,3.4841,3.4879,3.489,3.4899,3.4911,3.4988,3.5005,3.4818,3.4818,3.4818,0,0,3.3743,3.3815,3.387,3.4007,3.4069,3.4163,3.4134,3.4234,3.4303,3.4313,3.4437,3.4486,3.4576,3.471,3.4772,3.4753,3.4968,3.491,3.4916,3.4924,3.4999,3.5016,3.5032,3.4824,3.4823,3.4822,0,0,3.3859,3.3923,3.4025,3.4089,3.4185,3.4227,3.4251,3.4348,3.4381,3.4507,3.4516,3.4599,3.4758,3.4821,3.4874,3.5016,3.5017,3.5044,3.5102,3.5176,3.5191,3.5204,3.5254,3.5272,3.5056,3.5057,3.5057,0,3.3892,3.4035,3.4076,3.4178,3.4237,3.4252,3.4355,3.4415,3.4534,3.4574,3.4552,3.4752,3.4813,3.4962,3.4997,3.504,3.5069,3.5032,3.5186,3.52,3.5213,3.5261,3.5279,3.5059,3.5059,3.5058,3.5058,0,3.4072,3.4171,3.4241,3.4358,3.4426,3.4527,3.4583,3.4647,3.4665,3.4709,3.4837,3.4912,3.5016,3.5054,3.5072,3.5206,3.5191,3.5177,3.5135,3.5232,3.5278,3.5297,3.5063,3.5062,3.5061,3.506,0,0,3.4195,3.4334,3.4359,3.4413,3.452,3.4597,3.4699,3.4803,3.4857,3.4939,3.5025,3.516,3.5148,3.5208,3.5234,3.5299,3.5406,3.5277,3.528,3.5298,3.5558,3.5567,3.5587,3.5409,3.5412,3.5415,3.555,0,3.4321,3.4504,3.4545,3.4702,3.4794,3.481,3.4899,3.4974,3.5019,3.5102,3.5151,3.5246,3.5223,3.526,3.5326,3.5379,3.5459,3.537,3.5488,3.5491,3.5463,3.5611,3.5621,3.5745,3.5568,3.5571,3.5574,0,3.4493,3.4581,3.4747,3.4843,3.4883,3.4963,3.5062,3.5142,3.5227,3.5255,3.5324,3.5342,3.5449,3.5403,3.555,3.5489,3.5539,3.5573,3.5579,3.559,3.5537,3.5625,3.5785,3.5803,3.5602,3.56,3.5598,0,3.4565,3.4725,3.4845,3.489,3.5006,3.5061,3.5111,3.5194,3.5254,3.5341,3.538,3.5478,3.553,3.5605,3.565,3.5613,3.5793,3.5751,3.5818,3.5817,3.5853,3.585,3.6022,3.5888,3.5888,3.5888,3.5887,0,3.4701,3.4802,3.4879,3.4953,3.5066,3.5113,3.5223,3.5274,3.5347,3.5431,3.5451,3.5528,3.5583,3.5669,3.5704,3.582,3.5844,3.5868,3.5876,3.5866,3.5863,3.5898,3.589,3.5893,3.5892,3.5891,3.589,0,3.4799,3.4855,3.4987,3.5086,3.5114,3.5193,3.5277,3.5349,3.5395,3.55,3.5528,3.5599,3.57,3.5753,3.5879,3.5903,3.6033,3.6036,3.6004,3.6007,3.6071,3.6063,3.627,3.63,3.6148,3.6149,3.615,0,3.4881,3.496,3.5068,3.5126,3.5178,3.5271,3.5333,3.5382,3.5445,3.555,3.5609,3.5712,3.5796,3.5958,3.602,3.6117,3.6122,3.6188,3.6136,3.6124,3.6122,3.6116,3.6124,3.6196,3.6198,3.6199,3.62,0,3.5022,3.5046,3.5135,3.5235,3.5309,3.5389,3.5468,3.5514,3.5576,3.5646,3.5751,3.5817,3.5947,3.6048,3.615,3.6201,3.6211,3.6216,3.6237,3.6226,3.6203,3.6215,3.6027,3.6211,3.6209,3.6209,3.6208,3.6208,3.5114,3.5184,3.5272,3.537,3.5436,3.551,3.5582,3.5638,3.5726,3.5837,3.586,3.5971,3.6055,3.6193,3.6247,3.6334,3.632,3.635,3.6357,3.6363,3.6366,3.6191,3.6353,3.6353,3.6352,3.6352,3.6352,0,3.5254,3.5311,3.5402,3.5513,3.5591,3.5595,3.5684,3.5748,3.5845,3.5924,3.6007,3.6128,3.6227,3.6298,3.6399,3.6454,3.6461,3.6479,3.6475,3.6486,3.6373,3.6345,3.6472,3.6472,3.6472,3.6472,3.6472,3.6472,3.5336,3.5455,3.549,3.5642,3.5698,3.5808,3.5858,3.5926,3.5989,3.6123,3.6206,3.6252,3.6327,3.6434,3.6525,3.6543,3.6579,3.6596,3.6615,3.6507,3.6494,3.6482,3.6456,3.6604,3.6604,3.6721,3.6722,3.6723]}]]